Date,Installs,Update checks
2018-06-03,1,0
2018-06-04,5,0
2018-06-05,0,1
2018-06-06,0,0
2018-06-07,2,0
2018-06-08,2,0
2018-06-09,0,0
2018-06-10,1,1
2018-06-11,0,1
2018-06-12,0,0
2018-06-13,1,2
2018-06-14,0,0
2018-06-15,1,3
2018-06-16,2,3
2018-06-17,0,2
2018-06-18,0,0
2018-06-19,0,2
2018-06-20,1,1
2018-06-21,0,0
2018-06-22,0,1
2018-06-23,0,1
2018-06-24,0,1
2018-06-25,1,0
2018-06-26,4,0
2018-06-27,0,1
2018-06-28,2,3
2018-06-29,2,3
2018-06-30,0,4
2018-07-01,0,0
2018-07-02,0,3
2018-07-03,1,4
2018-07-04,0,3
2018-07-05,0,4
2018-07-06,1,2
2018-07-07,0,2
2018-07-08,1,2
2018-07-09,0,2
2018-07-10,0,2
2018-07-11,0,3
2018-07-12,0,6
2018-07-13,0,5
2018-07-14,3,3
2018-07-15,0,4
2018-07-16,0,8
2018-07-17,1,5
2018-07-18,1,5
2018-07-19,0,2
2018-07-20,1,3
2018-07-21,1,2
2018-07-22,0,2
2018-07-23,0,2
2018-07-24,0,4
2018-07-25,0,4
2018-07-26,0,6
2018-07-27,1,2
2018-07-28,1,2
2018-07-29,3,4
2018-07-30,0,4
2018-07-31,1,4
2018-08-01,0,5
2018-08-02,0,7
2018-08-03,1,1
2018-08-04,1,5
2018-08-05,1,2
2018-08-06,0,2
2018-08-07,1,3
2018-08-08,3,1
2018-08-09,2,7
2018-08-10,0,3
2018-08-11,0,3
2018-08-12,0,3
2018-08-13,2,4
2018-08-14,2,4
2018-08-15,0,5
2018-08-16,0,2
2018-08-17,1,5
2018-08-18,1,4
2018-08-19,3,4
2018-08-20,0,4
2018-08-21,2,5
2018-08-22,0,6
2018-08-23,1,2
2018-08-24,1,4
2018-08-25,2,5
2018-08-26,0,6
2018-08-27,0,5
2018-08-28,0,3
2018-08-29,0,5
2018-08-30,1,4
2018-08-31,2,5
2018-09-01,2,2
2018-09-02,1,7
2018-09-03,0,5
2018-09-04,0,5
2018-09-05,2,2
2018-09-06,0,3
2018-09-07,0,4
2018-09-08,1,3
2018-09-09,1,6
2018-09-10,1,6
2018-09-11,2,4
2018-09-12,1,6
2018-09-13,1,3
2018-09-14,0,7
2018-09-15,0,2
2018-09-16,0,4
2018-09-17,3,8
2018-09-18,0,9
2018-09-19,0,4
2018-09-20,0,9
2018-09-21,1,10
2018-09-22,0,2
2018-09-23,4,8
2018-09-24,0,11
2018-09-25,0,7
2018-09-26,0,5
2018-09-27,0,8
2018-09-28,1,5
2018-09-29,0,8
2018-09-30,2,6
2018-10-01,0,8
2018-10-02,0,6
2018-10-03,0,6
2018-10-04,1,9
2018-10-05,2,11
2018-10-06,1,6
2018-10-07,0,6
2018-10-08,0,7
2018-10-09,1,6
2018-10-10,1,8
2018-10-11,0,5
2018-10-12,0,9
2018-10-13,0,3
2018-10-14,2,4
2018-10-15,0,7
2018-10-16,0,4
2018-10-17,0,4
2018-10-18,1,7
2018-10-19,0,5
2018-10-20,1,7
2018-10-21,0,3
2018-10-22,2,4
2018-10-23,0,9
2018-10-24,0,4
2018-10-25,1,4
2018-10-26,1,10
2018-10-27,0,6
2018-10-28,0,4
2018-10-29,0,7
2018-10-30,0,5
2018-10-31,0,7
2018-11-01,0,6
2018-11-02,0,8
2018-11-03,0,6
2018-11-04,0,6
2018-11-05,1,5
2018-11-06,1,11
2018-11-07,2,8
2018-11-08,1,8
2018-11-09,1,8
2018-11-10,1,9
2018-11-11,0,8
2018-11-12,0,6
2018-11-13,0,6
2018-11-14,0,5
2018-11-15,0,7
2018-11-16,0,5
2018-11-17,0,5
2018-11-18,1,7
2018-11-19,2,8
2018-11-20,2,5
2018-11-21,0,9
2018-11-22,0,9
2018-11-23,0,8
2018-11-24,0,6
2018-11-25,1,8
2018-11-26,1,7
2018-11-27,2,9
2018-11-28,1,7
2018-11-29,1,11
2018-11-30,2,7
2018-12-01,1,7
2018-12-02,1,7
2018-12-03,1,10
2018-12-04,0,11
2018-12-05,2,8
2018-12-06,0,11
2018-12-07,1,9
2018-12-08,1,9
2018-12-09,1,10
2018-12-10,1,13
2018-12-11,2,11
2018-12-12,0,9
2018-12-13,1,11
2018-12-14,0,9
2018-12-15,1,9
2018-12-16,1,7
2018-12-17,1,10
2018-12-18,0,12
2018-12-19,0,11
2018-12-20,0,10
2018-12-21,1,9
2018-12-22,1,7
2018-12-23,1,10
2018-12-24,0,7
2018-12-25,0,8
2018-12-26,0,11
2018-12-27,1,9
2018-12-28,0,8
2018-12-29,1,10
2018-12-30,1,11
2018-12-31,1,7
2019-01-01,0,5
2019-01-02,1,10
2019-01-03,3,9
2019-01-04,1,9
2019-01-05,4,6
2019-01-06,1,8
2019-01-07,0,10
2019-01-08,1,11
2019-01-09,0,13
2019-01-10,1,13
2019-01-11,0,8
2019-01-12,1,7
2019-01-13,0,8
2019-01-14,1,17
2019-01-15,1,8
2019-01-16,1,10
2019-01-17,1,12
2019-01-18,1,10
2019-01-19,0,9
2019-01-20,1,11
2019-01-21,0,16
2019-01-22,0,16
2019-01-23,1,9
2019-01-24,0,15
2019-01-25,1,14
2019-01-26,1,7
2019-01-27,0,10
2019-01-28,0,12
2019-01-29,0,11
2019-01-30,1,13
2019-01-31,1,15
2019-02-01,0,9
2019-02-02,1,11
2019-02-03,0,11
2019-02-04,0,12
2019-02-05,0,13
2019-02-06,0,11
2019-02-07,0,9
2019-02-08,0,14
2019-02-09,0,10
2019-02-10,0,13
2019-02-11,0,11
2019-02-12,1,16
2019-02-13,2,10
2019-02-14,0,12
2019-02-15,0,12
2019-02-16,0,6
2019-02-17,0,9
2019-02-18,1,13
2019-02-19,0,13
2019-02-20,1,9
2019-02-21,2,12
2019-02-22,0,15
2019-02-23,0,7
2019-02-24,0,12
2019-02-25,0,14
2019-02-26,0,16
2019-02-27,0,10
2019-02-28,0,19
2019-03-01,0,11
2019-03-02,0,9
2019-03-03,0,13
2019-03-04,0,6
2019-03-05,1,10
2019-03-06,0,12
2019-03-07,0,15
2019-03-08,1,14
2019-03-09,1,8
2019-03-10,0,12
2019-03-11,0,10
2019-03-12,1,14
2019-03-13,0,9
2019-03-14,0,13
2019-03-15,0,13
2019-03-16,0,13
2019-03-17,1,11
2019-03-18,0,9
2019-03-19,0,11
2019-03-20,1,14
2019-03-21,1,10
2019-03-22,0,14
2019-03-23,1,8
2019-03-24,1,12
2019-03-25,0,11
2019-03-26,0,12
2019-03-27,0,14
2019-03-28,0,13
2019-03-29,0,15
2019-03-30,1,9
2019-03-31,0,12
2019-04-01,0,14
2019-04-02,0,15
2019-04-03,0,17
2019-04-04,0,15
2019-04-05,1,8
2019-04-06,0,13
2019-04-07,0,12
2019-04-08,1,14
2019-04-09,1,13
2019-04-10,1,16
2019-04-11,0,12
2019-04-12,0,13
2019-04-13,0,11
2019-04-14,0,8
2019-04-15,2,12
2019-04-16,2,14
2019-04-17,0,13
2019-04-18,1,11
2019-04-19,0,7
2019-04-20,1,9
2019-04-21,1,13
2019-04-22,0,17
2019-04-23,0,13
2019-04-24,1,13
2019-04-25,0,13
2019-04-26,1,12
2019-04-27,1,11
2019-04-28,0,12
2019-04-29,0,17
2019-04-30,1,15
2019-05-01,1,10
2019-05-02,0,14
2019-05-03,0,13
2019-05-04,0,11
2019-05-05,1,11
2019-05-06,1,10
2019-05-07,0,13
2019-05-08,0,9
2019-05-09,0,8
2019-05-10,0,16
2019-05-11,2,13
2019-05-12,1,14
2019-05-13,0,20
2019-05-14,0,11
2019-05-15,1,16
2019-05-16,0,11
2019-05-17,0,11
2019-05-18,0,12
2019-05-19,1,11
2019-05-20,0,13
2019-05-21,0,14
2019-05-22,0,14
2019-05-23,0,12
2019-05-24,0,14
2019-05-25,0,16
2019-05-26,1,13
2019-05-27,0,15
2019-05-28,1,13
2019-05-29,0,9
2019-05-30,0,10
2019-05-31,0,9
2019-06-01,2,10
2019-06-02,0,10
2019-06-03,0,18
2019-06-04,1,14
2019-06-05,1,10
2019-06-06,0,12
2019-06-07,1,11
2019-06-08,3,8
2019-06-09,0,12
2019-06-10,0,14
2019-06-11,0,14
2019-06-12,1,12
2019-06-13,0,14
2019-06-14,0,14
2019-06-15,2,12
2019-06-16,0,7
2019-06-17,1,9
2019-06-18,1,6
2019-06-19,1,9
2019-06-20,0,11
2019-06-21,2,12
2019-06-22,1,11
2019-06-23,0,6
2019-06-24,0,9
2019-06-25,0,9
2019-06-26,0,15
2019-06-27,0,12
2019-06-28,0,10
2019-06-29,0,13
2019-06-30,0,10
2019-07-01,0,12
2019-07-02,2,6
2019-07-03,0,11
2019-07-04,0,11
2019-07-05,1,7
2019-07-06,0,7
2019-07-07,0,8
2019-07-08,2,12
2019-07-09,1,13
2019-07-10,0,7
2019-07-11,1,8
2019-07-12,1,9
2019-07-13,0,8
2019-07-14,1,11
2019-07-15,0,9
2019-07-16,0,6
2019-07-17,0,8
2019-07-18,0,15
2019-07-19,0,8
2019-07-20,1,6
2019-07-21,0,8
2019-07-22,1,11
2019-07-23,0,9
2019-07-24,1,12
2019-07-25,0,9
2019-07-26,0,14
2019-07-27,2,5
2019-07-28,0,9
2019-07-29,3,10
2019-07-30,1,11
2019-07-31,0,9
2019-08-01,1,8
2019-08-02,2,6
2019-08-03,2,11
2019-08-04,0,7
2019-08-05,0,9
2019-08-06,0,7
2019-08-07,1,11
2019-08-08,1,13
2019-08-09,0,8
2019-08-10,1,8
2019-08-11,1,9
2019-08-12,0,9
2019-08-13,2,9
2019-08-14,0,6
2019-08-15,0,10
2019-08-16,0,8
2019-08-17,0,6
2019-08-18,0,6
2019-08-19,0,8
2019-08-20,0,10
2019-08-21,0,10
2019-08-22,0,7
2019-08-23,0,7
2019-08-24,0,2
2019-08-25,0,3
2019-08-26,2,5
2019-08-27,1,6
2019-08-28,2,9
2019-08-29,0,4
2019-08-30,0,8
2019-08-31,1,10
2019-09-01,0,4
2019-09-02,0,14
2019-09-03,0,7
2019-09-04,0,9
2019-09-05,0,10
2019-09-06,1,9
2019-09-07,2,9
2019-09-08,0,7
2019-09-09,0,5
2019-09-10,2,8
2019-09-11,0,14
2019-09-12,1,11
2019-09-13,2,9
2019-09-14,2,8
2019-09-15,1,7
2019-09-16,0,11
2019-09-17,1,8
2019-09-18,1,10
2019-09-19,0,9
2019-09-20,0,9
2019-09-21,1,5
2019-09-22,1,11
2019-09-23,0,15
2019-09-24,2,13
2019-09-25,3,6
2019-09-26,1,13
2019-09-27,1,10
2019-09-28,1,8
2019-09-29,1,10
2019-09-30,0,10
2019-10-01,2,10
2019-10-02,0,11
2019-10-03,1,14
2019-10-04,1,7
2019-10-05,2,10
2019-10-06,0,8
2019-10-07,1,7
2019-10-08,0,15
2019-10-09,0,11
2019-10-10,2,11
2019-10-11,2,13
2019-10-12,3,8
2019-10-13,0,6
2019-10-14,0,10
2019-10-15,0,13
2019-10-16,0,12
2019-10-17,1,10
2019-10-18,0,9
2019-10-19,0,8
2019-10-20,1,6
2019-10-21,0,12
2019-10-22,0,11
2019-10-23,0,8
2019-10-24,0,14
2019-10-25,0,10
2019-10-26,1,7
2019-10-27,1,9
2019-10-28,0,12
2019-10-29,0,9
2019-10-30,0,7
2019-10-31,1,11
2019-11-01,0,10
2019-11-02,0,10
2019-11-03,0,11
2019-11-04,1,7
2019-11-05,0,7
2019-11-06,0,13
2019-11-07,1,13
2019-11-08,0,13
2019-11-09,2,6
2019-11-10,0,12
2019-11-11,0,8
2019-11-12,0,5
2019-11-13,1,13
2019-11-14,0,6
2019-11-15,1,14
2019-11-16,1,10
2019-11-17,1,11
2019-11-18,0,9
2019-11-19,0,15
2019-11-20,0,10
2019-11-21,0,9
2019-11-22,0,9
2019-11-23,2,12
2019-11-24,0,16
2019-11-25,0,12
2019-11-26,2,19
2019-11-27,0,13
2019-11-28,0,15
2019-11-29,0,11
2019-11-30,0,18
2019-12-01,2,12
2019-12-02,0,11
2019-12-03,0,9
2019-12-04,0,17
2019-12-05,2,13
2019-12-06,1,14
2019-12-07,0,12
2019-12-08,0,15
2019-12-09,0,14
2019-12-10,0,16
2019-12-11,0,17
2019-12-12,1,15
2019-12-13,1,16
2019-12-14,1,9
2019-12-15,0,15
2019-12-16,0,16
2019-12-17,0,16
2019-12-18,0,23
2019-12-19,0,11
2019-12-20,0,19
2019-12-21,1,9
2019-12-22,0,15
2019-12-23,1,16
2019-12-24,0,18
2019-12-25,0,10
2019-12-26,0,14
2019-12-27,0,14
2019-12-28,0,14
2019-12-29,0,16
2019-12-30,0,16
2019-12-31,0,17
2020-01-01,0,10
2020-01-02,0,14
2020-01-03,0,17
2020-01-04,0,15
2020-01-05,0,13
2020-01-06,0,19
2020-01-07,0,14
2020-01-08,1,19
2020-01-09,1,14
2020-01-10,2,11
2020-01-11,0,16
2020-01-12,0,14
2020-01-13,0,16
2020-01-14,0,19
2020-01-15,0,15
2020-01-16,0,12
2020-01-17,1,15
2020-01-18,1,16
2020-01-19,0,17
2020-01-20,1,19
2020-01-21,0,18
2020-01-22,0,17
2020-01-23,0,13
2020-01-24,1,17
2020-01-25,1,21
2020-01-26,0,14
2020-01-27,0,17
2020-01-28,0,23
2020-01-29,1,19
2020-01-30,0,18
2020-01-31,0,17
2020-02-01,0,19
2020-02-02,1,19
2020-02-03,1,21
2020-02-04,0,24
2020-02-05,0,21
2020-02-06,0,20
2020-02-07,0,23
2020-02-08,0,8
2020-02-09,0,10
2020-02-10,1,23
2020-02-11,0,20
2020-02-12,0,22
2020-02-13,0,15
2020-02-14,1,25
2020-02-15,1,18
2020-02-16,0,21
2020-02-17,0,21
2020-02-18,0,20
2020-02-19,0,21
2020-02-20,2,23
2020-02-21,1,18
2020-02-22,0,17
2020-02-23,1,21
2020-02-24,1,16
2020-02-25,0,21
2020-02-26,1,23
2020-02-27,0,20
2020-02-28,1,15
2020-02-29,0,16
2020-03-01,0,14
2020-03-02,2,18
2020-03-03,1,20
2020-03-04,0,17
2020-03-05,0,19
2020-03-06,0,11
2020-03-07,0,20
2020-03-08,1,17
2020-03-09,1,20
2020-03-10,0,20
2020-03-11,0,18
2020-03-12,1,15
2020-03-13,2,14
2020-03-14,0,20
2020-03-15,0,18
2020-03-16,0,21
2020-03-17,0,18
2020-03-18,0,15
2020-03-19,1,16
2020-03-20,0,19
2020-03-21,3,13
2020-03-22,2,16
2020-03-23,1,15
2020-03-24,0,15
2020-03-25,0,22
2020-03-26,0,20
2020-03-27,0,17
2020-03-28,0,15
2020-03-29,0,19
2020-03-30,0,23
2020-03-31,0,22
2020-04-01,0,21
2020-04-02,0,17
2020-04-03,0,17
2020-04-04,0,16
2020-04-05,1,19
2020-04-06,2,17
2020-04-07,0,18
2020-04-08,0,16
2020-04-09,1,16
2020-04-10,1,20
2020-04-11,2,17
2020-04-12,0,13
2020-04-13,0,15
2020-04-14,0,17
2020-04-15,0,17
2020-04-16,1,20
2020-04-17,1,19
2020-04-18,1,11
2020-04-19,1,14
2020-04-20,0,18
2020-04-21,0,16
2020-04-22,0,16
2020-04-23,1,19
2020-04-24,2,21
2020-04-25,0,16
2020-04-26,1,14
2020-04-27,0,18
2020-04-28,0,16
2020-04-29,0,22
2020-04-30,3,19
2020-05-01,2,21
2020-05-02,2,13
2020-05-03,0,24
2020-05-04,0,18
2020-05-05,0,18
2020-05-06,0,18
2020-05-07,0,16
2020-05-08,1,22
2020-05-09,0,21
2020-05-10,1,18
2020-05-11,2,16
2020-05-12,0,17
2020-05-13,0,18
2020-05-14,0,16
2020-05-15,1,22
2020-05-16,0,15
2020-05-17,1,15
2020-05-18,0,15
2020-05-19,0,13
2020-05-20,0,13
2020-05-21,0,21
2020-05-22,0,16
2020-05-23,1,12
2020-05-24,0,16
2020-05-25,0,16
2020-05-26,1,13
2020-05-27,1,20
2020-05-28,0,19
2020-05-29,0,15
2020-05-30,0,19
2020-05-31,2,15
2020-06-01,1,13
2020-06-02,1,19
2020-06-03,1,15
2020-06-04,1,16
2020-06-05,0,14
2020-06-06,0,18
2020-06-07,0,11
2020-06-08,0,19
2020-06-09,1,17
2020-06-10,1,17
2020-06-11,0,14
2020-06-12,1,14
2020-06-13,0,13
2020-06-14,0,16
2020-06-15,1,12
2020-06-16,1,15
2020-06-17,0,15
2020-06-18,0,15
2020-06-19,0,12
2020-06-20,0,16
2020-06-21,0,19
2020-06-22,0,17
2020-06-23,0,22
2020-06-24,0,14
2020-06-25,0,18
2020-06-26,0,11
2020-06-27,0,18
2020-06-28,0,15
2020-06-29,0,11
2020-06-30,0,17
2020-07-01,0,14
2020-07-02,0,15
2020-07-03,0,13
2020-07-04,0,16
2020-07-05,0,12
2020-07-06,0,18
2020-07-07,1,16
2020-07-08,0,14
2020-07-09,0,17
2020-07-10,1,11
2020-07-11,0,17
2020-07-12,0,17
2020-07-13,0,15
2020-07-14,0,17
2020-07-15,0,8
2020-07-16,0,18
2020-07-17,0,18
2020-07-18,0,17
2020-07-19,0,17
2020-07-20,0,12
2020-07-21,0,23
2020-07-22,0,14
2020-07-23,1,16
2020-07-24,0,20
2020-07-25,0,14
2020-07-26,1,11
2020-07-27,1,13
2020-07-28,0,19
2020-07-29,0,14
2020-07-30,1,19
2020-07-31,0,18
2020-08-01,2,19
2020-08-02,0,18
2020-08-03,0,20
2020-08-04,0,22
2020-08-05,0,23
2020-08-06,0,19
2020-08-07,0,18
2020-08-08,0,16
2020-08-09,1,18
2020-08-10,0,18
2020-08-11,0,15
2020-08-12,0,14
2020-08-13,0,17
2020-08-14,0,16
2020-08-15,0,14
2020-08-16,0,14
2020-08-17,0,21
2020-08-18,0,26
2020-08-19,0,16
2020-08-20,0,24
2020-08-21,0,19
2020-08-22,0,20
2020-08-23,1,19
2020-08-24,0,14
2020-08-25,0,17
2020-08-26,0,14
2020-08-27,0,11
2020-08-28,0,19
2020-08-29,0,15
2020-08-30,0,22
2020-08-31,0,15
2020-09-01,0,17
2020-09-02,0,17
2020-09-03,0,15
2020-09-04,1,17
2020-09-05,0,11
2020-09-06,0,16
2020-09-07,0,11
2020-09-08,0,20
2020-09-09,0,19
2020-09-10,0,13
2020-09-11,0,18
2020-09-12,1,16
2020-09-13,0,16
2020-09-14,0,17
2020-09-15,0,17
2020-09-16,0,19
2020-09-17,0,16
2020-09-18,0,16
2020-09-19,1,18
2020-09-20,0,16
2020-09-21,0,14
2020-09-22,0,15
2020-09-23,0,21
2020-09-24,0,13
2020-09-25,0,15
2020-09-26,0,21
2020-09-27,2,16
2020-09-28,0,20
2020-09-29,0,23
2020-09-30,0,15
2020-10-01,0,16
2020-10-02,0,19
2020-10-03,0,10
2020-10-04,0,15
2020-10-05,0,18
2020-10-06,1,12
2020-10-07,0,15
2020-10-08,0,16
2020-10-09,1,13
2020-10-10,0,15
2020-10-11,0,17
2020-10-12,0,11
2020-10-13,1,12
2020-10-14,0,16
2020-10-15,0,14
2020-10-16,0,15
2020-10-17,1,19
2020-10-18,1,14
2020-10-19,0,17
2020-10-20,1,14
2020-10-21,0,20
2020-10-22,0,19
2020-10-23,0,20
2020-10-24,0,15
2020-10-25,0,15
2020-10-26,0,16
2020-10-27,0,16
2020-10-28,0,20
2020-10-29,0,16
2020-10-30,1,19
2020-10-31,0,15
2020-11-01,0,18
2020-11-02,0,13
2020-11-03,2,16
2020-11-04,0,17
2020-11-05,0,16
2020-11-06,0,17
2020-11-07,0,16
2020-11-08,0,16
2020-11-09,1,18
2020-11-10,0,19
2020-11-11,0,19
2020-11-12,0,15
2020-11-13,0,14
2020-11-14,0,14
2020-11-15,0,12
2020-11-16,0,22
2020-11-17,0,17
2020-11-18,0,15
2020-11-19,0,13
2020-11-20,1,13
2020-11-21,0,10
2020-11-22,1,12
2020-11-23,2,15
2020-11-24,0,14
2020-11-25,0,13
2020-11-26,1,13
2020-11-27,2,14
2020-11-28,0,10
2020-11-29,0,14
2020-11-30,0,17
2020-12-01,0,15
2020-12-02,0,11
2020-12-03,0,13
2020-12-04,1,14
2020-12-05,0,18
2020-12-06,1,14
2020-12-07,0,16
2020-12-08,0,11
2020-12-09,0,12
2020-12-10,0,10
2020-12-11,0,14
2020-12-12,0,11
2020-12-13,0,10
2020-12-14,0,16
2020-12-15,0,10
2020-12-16,0,12
2020-12-17,0,13
2020-12-18,1,17
2020-12-19,0,9
2020-12-20,1,7
2020-12-21,0,11
2020-12-22,0,14
2020-12-23,0,10
2020-12-24,1,14
2020-12-25,0,11
2020-12-26,0,13
2020-12-27,0,11
2020-12-28,1,7
2020-12-29,0,14
2020-12-30,0,11
2020-12-31,0,12
2021-01-01,0,11
2021-01-02,0,9
2021-01-03,0,12
2021-01-04,0,10
2021-01-05,0,12
2021-01-06,1,9
2021-01-07,0,12
2021-01-08,0,5
2021-01-09,2,9
2021-01-10,1,10
2021-01-11,0,9
2021-01-12,0,9
2021-01-13,0,11
2021-01-14,0,11
2021-01-15,0,9
2021-01-16,0,11
2021-01-17,0,10
2021-01-18,1,11
2021-01-19,0,7
2021-01-20,0,9
2021-01-21,0,11
2021-01-22,0,6
2021-01-23,1,10
2021-01-24,1,9
2021-01-25,0,7
2021-01-26,0,12
2021-01-27,0,8
2021-01-28,0,9
2021-01-29,0,6
2021-01-30,0,10
2021-01-31,0,6
2021-02-01,1,6
2021-02-02,0,10
2021-02-03,0,5
2021-02-04,1,9
2021-02-05,0,8
2021-02-06,1,10
2021-02-07,0,9
2021-02-08,1,8
2021-02-09,2,8
2021-02-10,0,11
2021-02-11,0,9
2021-02-12,0,10
2021-02-13,0,5
2021-02-14,0,9
2021-02-15,0,17
2021-02-16,0,10
2021-02-17,0,12
2021-02-18,0,12
2021-02-19,0,15
2021-02-20,0,13
2021-02-21,1,12
2021-02-22,0,7
2021-02-23,0,11
2021-02-24,0,15
2021-02-25,0,18
2021-02-26,0,10
2021-02-27,1,12
2021-02-28,0,13
2021-03-01,0,18
2021-03-02,0,14
2021-03-03,0,13
2021-03-04,0,15
2021-03-05,0,12
2021-03-06,0,10
2021-03-07,0,16
2021-03-08,0,10
2021-03-09,0,16
2021-03-10,0,10
2021-03-11,0,7
2021-03-12,0,11
2021-03-13,1,7
2021-03-14,0,10
2021-03-15,0,8
2021-03-16,0,12
2021-03-17,1,12
2021-03-18,0,8
2021-03-19,0,15
2021-03-20,0,11
2021-03-21,0,5
2021-03-22,0,13
2021-03-23,0,7
2021-03-24,1,13
2021-03-25,0,16
2021-03-26,0,7
2021-03-27,0,7
2021-03-28,0,10
2021-03-29,0,14
2021-03-30,0,9
2021-03-31,0,10
2021-04-01,1,16
2021-04-02,0,9
2021-04-03,1,10
2021-04-04,0,8
2021-04-05,0,14
2021-04-06,1,13
2021-04-07,0,12
2021-04-08,1,10
2021-04-09,0,13
2021-04-10,1,11
2021-04-11,1,6
2021-04-12,0,12
2021-04-13,0,9
2021-04-14,0,16
2021-04-15,1,14
2021-04-16,2,15
2021-04-17,0,14
2021-04-18,0,14
2021-04-19,0,13
2021-04-20,0,12
2021-04-21,0,21
2021-04-22,1,15
2021-04-23,0,18
2021-04-24,0,13
2021-04-25,0,20
2021-04-26,0,13
2021-04-27,0,19
2021-04-28,0,11
2021-04-29,0,20
2021-04-30,0,11
2021-05-01,0,17
2021-05-02,1,12
2021-05-03,1,20
2021-05-04,0,13
2021-05-05,1,17
2021-05-06,0,13
2021-05-07,0,17
2021-05-08,0,15
2021-05-09,0,13
2021-05-10,0,20
2021-05-11,0,16
2021-05-12,0,14
2021-05-13,0,16
2021-05-14,1,18
2021-05-15,0,12
2021-05-16,0,12
2021-05-17,0,15
2021-05-18,1,11
2021-05-19,0,15
2021-05-20,0,17
2021-05-21,0,13
2021-05-22,1,17
2021-05-23,0,14
2021-05-24,0,11
2021-05-25,0,15
2021-05-26,0,18
2021-05-27,1,18
2021-05-28,1,18
2021-05-29,0,15
2021-05-30,2,15
2021-05-31,0,14
2021-06-01,0,19
2021-06-02,0,16
2021-06-03,0,18
2021-06-04,0,13
2021-06-05,0,7
2021-06-06,0,17
2021-06-07,0,14
2021-06-08,0,21
2021-06-09,1,16
2021-06-10,0,14
2021-06-11,0,16
2021-06-12,0,15
2021-06-13,0,17
2021-06-14,1,19
2021-06-15,0,15
2021-06-16,0,16
2021-06-17,2,18
2021-06-18,0,16
2021-06-19,0,18
2021-06-20,0,14
2021-06-21,0,17
2021-06-22,0,16
2021-06-23,1,17
2021-06-24,1,17
2021-06-25,0,18
2021-06-26,0,15
2021-06-27,0,18
2021-06-28,1,12
2021-06-29,0,15
2021-06-30,0,16
2021-07-01,0,16
2021-07-02,1,17
2021-07-03,0,16
2021-07-04,1,13
2021-07-05,1,15
2021-07-06,1,16
2021-07-07,1,18
2021-07-08,0,20
2021-07-09,0,20
2021-07-10,0,11
2021-07-11,0,20
2021-07-12,1,13
2021-07-13,0,19
2021-07-14,0,16
2021-07-15,0,22
2021-07-16,0,21
2021-07-17,2,20
2021-07-18,0,1
2021-07-19,0,6
2021-07-20,1,17
2021-07-21,0,18
2021-07-22,0,17
2021-07-23,0,15
2021-07-24,1,14
2021-07-25,0,20
2021-07-26,0,19
2021-07-27,0,18
2021-07-28,1,16
2021-07-29,0,20
2021-07-30,2,17
2021-07-31,0,19
2021-08-01,0,13
2021-08-02,1,14
2021-08-03,0,19
2021-08-04,0,16
2021-08-05,0,21
2021-08-06,1,20
2021-08-07,0,12
2021-08-08,0,19
2021-08-09,0,19
2021-08-10,2,19
2021-08-11,0,20
2021-08-12,0,16
2021-08-13,1,20
2021-08-14,0,20
2021-08-15,0,19
2021-08-16,1,19
2021-08-17,0,18
2021-08-18,0,19
2021-08-19,0,18
2021-08-20,0,20
2021-08-21,0,14
2021-08-22,1,18
2021-08-23,0,18
2021-08-24,0,16
2021-08-25,1,17
2021-08-26,0,14
2021-08-27,0,19
2021-08-28,0,18
2021-08-29,0,17
2021-08-30,0,13
2021-08-31,0,17
2021-09-01,0,18
2021-09-02,0,17
2021-09-03,0,16
2021-09-04,0,16
2021-09-05,1,11
2021-09-06,1,13
2021-09-07,0,15
2021-09-08,0,18
2021-09-09,0,19
2021-09-10,0,13
2021-09-11,0,13
2021-09-12,0,13
2021-09-13,1,17
2021-09-14,0,18
2021-09-15,0,13
2021-09-16,0,17
2021-09-17,1,12
2021-09-18,0,16
2021-09-19,0,12
2021-09-20,0,16
2021-09-21,0,17
2021-09-22,0,13
2021-09-23,2,12
2021-09-24,0,16
2021-09-25,0,15
2021-09-26,0,14
2021-09-27,0,16
2021-09-28,0,19
2021-09-29,1,15
2021-09-30,0,19
2021-10-01,1,18
2021-10-02,0,18
2021-10-03,1,16
2021-10-04,0,16
2021-10-05,1,17
2021-10-06,1,18
2021-10-07,0,18
2021-10-08,0,20
2021-10-09,1,14
2021-10-10,1,17
2021-10-11,0,20
2021-10-12,0,19
2021-10-13,0,16
2021-10-14,0,17
2021-10-15,0,13
2021-10-16,1,18
2021-10-17,1,11
2021-10-18,0,17
2021-10-19,1,18
2021-10-20,1,16
2021-10-21,1,17
2021-10-22,0,16
2021-10-23,0,16
2021-10-24,0,17
2021-10-25,0,13
2021-10-26,1,14
2021-10-27,0,16
2021-10-28,0,14
2021-10-29,0,10
2021-10-30,0,14
2021-10-31,0,12
2021-11-01,0,13
2021-11-02,0,19
2021-11-03,0,17
2021-11-04,0,18
2021-11-05,0,16
2021-11-06,0,15
2021-11-07,1,13
2021-11-08,0,15
2021-11-09,0,18
2021-11-10,0,11
2021-11-11,0,16
2021-11-12,1,12
2021-11-13,1,16
2021-11-14,1,15
2021-11-15,0,20
2021-11-16,0,10
2021-11-17,1,18
2021-11-18,1,15
2021-11-19,0,15
2021-11-20,0,14
2021-11-21,0,12
2021-11-22,0,14
2021-11-23,2,14
2021-11-24,1,13
2021-11-25,0,17
2021-11-26,0,15
2021-11-27,1,11
2021-11-28,0,13
2021-11-29,0,15
2021-11-30,1,15
2021-12-01,0,14
2021-12-02,1,17
2021-12-03,1,14
2021-12-04,1,14
2021-12-05,2,14
2021-12-06,0,12
2021-12-07,1,15
2021-12-08,0,14
2021-12-09,0,12
2021-12-10,0,14
2021-12-11,0,14
2021-12-12,0,11
2021-12-13,1,13
2021-12-14,0,14
2021-12-15,0,15
2021-12-16,0,15
2021-12-17,0,12
2021-12-18,0,12
2021-12-19,0,12
2021-12-20,0,17
2021-12-21,0,14
2021-12-22,0,19
2021-12-23,0,15
2021-12-24,1,8
2021-12-25,0,11
2021-12-26,2,13
2021-12-27,1,16
2021-12-28,0,12
2021-12-29,1,14
2021-12-30,2,12
2021-12-31,0,12
2022-01-01,0,16
2022-01-02,0,11
2022-01-03,0,14
2022-01-04,0,16
2022-01-05,0,14
2022-01-06,0,15
2022-01-07,1,12
2022-01-08,2,14
2022-01-09,0,1
2022-01-10,0,0
2022-01-11,1,18
2022-01-12,0,13
2022-01-13,1,16
2022-01-14,0,13
2022-01-15,0,16
2022-01-16,0,12
2022-01-17,1,15
2022-01-18,0,15
2022-01-19,1,12
2022-01-20,0,14
2022-01-21,0,16
2022-01-22,0,13
2022-01-23,0,9
2022-01-24,0,12
2022-01-25,0,14
2022-01-26,0,19
2022-01-27,0,11
2022-01-28,1,11
2022-01-29,0,10
2022-01-30,0,10
2022-01-31,0,11
2022-02-01,0,15
2022-02-02,1,10
2022-02-03,1,16
2022-02-04,0,12
2022-02-05,1,13
2022-02-06,1,14
2022-02-07,1,10
2022-02-08,0,14
2022-02-09,0,12
2022-02-10,0,12
2022-02-11,1,10
2022-02-12,0,9
2022-02-13,1,10
2022-02-14,0,9
2022-02-15,0,14
2022-02-16,0,12
2022-02-17,1,16
2022-02-18,0,13
2022-02-19,0,11
2022-02-20,2,13
2022-02-21,1,14
2022-02-22,1,13
2022-02-23,0,11
2022-02-24,0,14
2022-02-25,0,12
2022-02-26,1,9
2022-02-27,0,12
2022-02-28,2,16
2022-03-01,2,13
2022-03-02,0,12
2022-03-03,1,16
2022-03-04,1,11
2022-03-05,1,16
2022-03-06,0,12
2022-03-07,0,16
2022-03-08,0,14
2022-03-09,0,18
2022-03-10,0,16
2022-03-11,0,15
2022-03-12,0,13
2022-03-13,0,11
2022-03-14,0,15
2022-03-15,0,15
2022-03-16,2,13
2022-03-17,1,11
2022-03-18,0,15
2022-03-19,0,13
2022-03-20,0,12
2022-03-21,1,15
2022-03-22,1,15
2022-03-23,1,13
2022-03-24,0,19
2022-03-25,0,21
2022-03-26,0,13
2022-03-27,0,12
2022-03-28,0,17
2022-03-29,0,19
2022-03-30,0,14
2022-03-31,0,16
2022-04-01,1,15
2022-04-02,0,14
2022-04-03,0,12
2022-04-04,2,16
2022-04-05,0,13
2022-04-06,0,14
2022-04-07,0,12
2022-04-08,0,11
2022-04-09,0,15
2022-04-10,1,12
2022-04-11,0,13
2022-04-12,0,13
2022-04-13,0,7
2022-04-14,0,14
2022-04-15,0,11
2022-04-16,1,14
2022-04-17,0,14
2022-04-18,1,11
2022-04-19,0,15
2022-04-20,0,9
2022-04-21,1,11
2022-04-22,1,12
2022-04-23,0,7
2022-04-24,0,14
2022-04-25,0,10
2022-04-26,0,14
2022-04-27,0,13
2022-04-28,2,15
2022-04-29,0,9
2022-04-30,1,15
2022-05-01,0,12
2022-05-02,0,11
2022-05-03,0,13
2022-05-04,0,13
2022-05-05,0,11
2022-05-06,0,10
2022-05-07,0,8
2022-05-08,0,9
2022-05-09,1,10
2022-05-10,0,13
2022-05-11,1,13
2022-05-12,0,16
2022-05-13,0,14
2022-05-14,0,16
2022-05-15,0,14
2022-05-16,0,14
2022-05-17,0,9
2022-05-18,1,14
2022-05-19,1,12
2022-05-20,0,17
2022-05-21,0,8
2022-05-22,1,14
2022-05-23,0,16
2022-05-24,0,15
2022-05-25,0,16
2022-05-26,0,15
2022-05-27,0,13
2022-05-28,1,14
2022-05-29,0,13
2022-05-30,0,15
2022-05-31,0,13
2022-06-01,3,11
2022-06-02,0,12
2022-06-03,0,15
2022-06-04,1,11
2022-06-05,1,10
2022-06-06,0,10
2022-06-07,0,12
2022-06-08,1,9
2022-06-09,0,11
2022-06-10,1,13
2022-06-11,0,12
2022-06-12,1,10
2022-06-13,1,15
2022-06-14,0,12
2022-06-15,0,11
2022-06-16,0,13
2022-06-17,0,11
2022-06-18,0,12
2022-06-19,1,13
2022-06-20,0,13
2022-06-21,1,13
2022-06-22,0,12
2022-06-23,1,16
2022-06-24,0,14
2022-06-25,1,12
2022-06-26,0,15
2022-06-27,1,13
2022-06-28,1,14
2022-06-29,0,15
2022-06-30,0,16
2022-07-01,2,17
2022-07-02,1,16
2022-07-03,0,15
2022-07-04,0,13
2022-07-05,0,20
2022-07-06,0,14
2022-07-07,0,9
2022-07-08,1,18
2022-07-09,0,14
2022-07-10,0,11
2022-07-11,1,15
2022-07-12,0,14
2022-07-13,1,12
2022-07-14,0,9
2022-07-15,0,13
2022-07-16,1,13
2022-07-17,0,15
2022-07-18,0,9
2022-07-19,0,16
2022-07-20,0,14
2022-07-21,0,16
2022-07-22,1,13
2022-07-23,0,13
2022-07-24,0,9
2022-07-25,0,13
2022-07-26,1,13
2022-07-27,0,13
2022-07-28,0,10
2022-07-29,0,13
2022-07-30,0,10
2022-07-31,0,13
2022-08-01,0,14
2022-08-02,0,15